FW3754 Weather Reports


Display with metric or nautical units.
time (UTC)temp
F
wind
direction
speed
MPH
gust
MPH
rain 1hr
in
rain 24hr
in
rain mn
in
humidity
%
barometer
mb
20200401121549 72 214 3.0 0.0 0.00 0.00 0.03 90 1008.2
20200401120119 72 276 4.0 0.0 0.00 0.00 0.03 90 1008.0
20200401114624 72 271 3.0 0.0 0.00 0.00 0.03 90 1007.8
20200401113041 72 251 4.0 0.0 0.00 0.00 0.03 90 1007.8
20200401111606 72 283 5.0 0.0 0.00 0.00 0.03 90 1007.8
20200401110047 73 247 4.0 0.0 0.00 0.00 0.03 90 1007.7
20200401104549 73 244 5.0 0.0 0.00 0.00 0.03 90 1007.3
20200401103044 73 279 5.0 0.0 0.00 0.00 0.03 90 1006.9
20200401101620 73 280 7.0 0.0 0.00 0.00 0.03 90 1006.7
20200401100025 74 259 9.0 0.0 0.00 0.00 0.03 89 1006.7
20200401094514 76 264 7.0 0.0 0.00 0.00 0.02 89 1006.5
20200401093032 76 278 4.0 0.0 0.00 0.00 0.00 88 1006.1
20200401091524 76 235 4.0 0.0 0.00 0.00 0.00 89 1006.0
20200401090008 75 263 5.0 0.0 0.00 0.00 0.00 89 1006.1
20200401084518 75 284 5.0 0.0 0.00 0.00 0.00 89 1006.0
20200401083009 76 207 4.0 0.0 0.00 0.00 0.00 89 1006.0
20200401081607 76 271 4.0 0.0 0.00 0.00 0.00 89 1005.8
20200401080020 76 221 3.0 0.0 0.00 0.00 0.00 89 1005.8
20200401074503 76 201 5.0 0.0 0.00 0.00 0.00 89 1006.0
20200401073219 76 277 3.0 0.0 0.00 0.00 0.00 89 1006.2
20200401073009 75 201 3.0 0.0 0.00 0.00 0.00 88 1006.2
20200401071725 76 245 4.0 0.0 0.00 0.00 0.00 88 1006.3
20200401070216 76 245 4.0 0.0 0.00 0.00 0.00 88 1006.6
20200401064606 76 222 4.0 0.0 0.00 0.00 0.00 88 1006.7
20200401063220 76 209 5.0 0.0 0.00 0.00 0.00 88 1006.9
20200401061833 76 213 4.0 0.0 0.00 0.00 0.00 88 1007.1
20200401060056 76 265 3.0 0.0 0.00 0.00 0.00 88 1007.3
20200401054619 76 251 4.0 0.0 0.00 0.00 0.00 88 1007.3
20200401053155 76 205 3.0 0.0 0.00 0.00 0.00 88 1007.5
20200401051624 76 267 4.0 0.0 0.00 0.00 0.00 88 1007.8
20200401050119 76 244 4.0 0.0 0.00 0.00 0.00 88 1008.0
20200401044618 76 240 4.0 0.0 0.00 0.00 0.00 88 1008.2
20200401043055 76 235 4.0 0.0 0.00 0.00 0.00 88 1008.4
20200401041608 76 269 4.0 0.0 0.00 0.00 0.00 88 1008.6
20200401040112 76 257 3.0 0.0 0.00 0.00 0.00 88 1008.7
20200401034613 76 275 4.0 0.0 0.00 0.00 0.00 87 1008.9
20200401033247 77 265 4.0 0.0 0.00 0.00 0.00 87 1009.0
20200401031606 77 255 4.0 0.0 0.00 0.00 0.00 86 1009.2
20200401030200 77 241 5.0 0.0 0.00 0.00 0.00 85 1009.1
20200401024616 77 246 5.0 0.0 0.00 0.00 0.00 84 1009.3
20200401023120 77 279 5.0 0.0 0.00 0.00 0.00 83 1009.3
20200401021545 78 248 4.0 0.0 0.00 0.00 0.00 82 1009.3
20200401020125 78 261 4.0 0.0 0.00 0.00 0.00 80 1009.3
20200401014535 79 237 4.0 0.0 0.00 0.00 0.00 79 1009.2
20200401013051 79 248 4.0 0.0 0.00 0.00 0.00 77 1009.1
20200401011618 80 236 5.0 0.0 0.00 0.00 0.00 76 1008.8
20200401010029 80 264 5.0 0.0 0.00 0.00 0.00 74 1008.7
20200401004556 80 240 4.0 0.0 0.00 0.00 0.00 72 1008.7
20200401003029 81 252 5.0 0.0 0.00 0.00 0.00 70 1008.6
20200401001547 82 246 6.0 0.0 0.00 0.00 0.00 69 1008.5
20200401000026 82 204 5.0 0.0 0.00 0.00 0.00 66 1008.4
20200331234526 83 269 5.0 0.0 0.00 0.00 0.00 64 1008.2
20200331233128 84 246 5.0 0.0 0.00 0.00 0.00 63 1008.1
20200331231550 84 257 6.0 0.0 0.00 0.00 0.00 61 1008.0
20200331230040 85 246 6.0 0.0 0.00 0.00 0.00 60 1007.9
20200331224558 86 228 7.0 0.0 0.00 0.00 0.00 59 1007.9
20200331223031 86 224 7.0 0.0 0.00 0.00 0.00 58 1007.9
20200331221553 87 279 8.0 0.0 0.00 0.00 0.00 56 1007.9
20200331220046 88 234 9.0 0.0 0.00 0.00 0.00 55 1008.1
20200331214543 88 268 8.0 0.0 0.00 0.00 0.00 55 1008.1
20200331213023 88 290 7.0 0.0 0.00 0.00 0.00 55 1008.0
20200331211543 88 229 7.0 0.0 0.00 0.00 0.00 55 1008.0
20200331210018 89 295 9.0 0.0 0.00 0.00 0.00 53 1008.2
20200331204538 88 267 9.0 0.0 0.00 0.00 0.00 54 1008.2
20200331203019 89 279 9.0 0.0 0.00 0.00 0.00 53 1008.3
20200331201524 90 241 6.0 0.0 0.00 0.00 0.00 51 1008.4
20200331200016 88 275 7.0 0.0 0.00 0.00 0.00 53 1008.7
20200331194526 89 300 6.0 0.0 0.00 0.00 0.00 52 1008.8
20200331193018 89 252 8.0 0.0 0.00 0.00 0.00 51 1008.9
20200331191527 90 255 8.0 0.0 0.00 0.00 0.00 50 1009.2
20200331190006 90 280 7.0 0.0 0.00 0.00 0.00 51 1009.3
20200331184506 88 228 6.0 0.0 0.00 0.00 0.00 55 1009.4
20200331183003 89 175 6.0 0.0 0.00 0.00 0.00 53 1009.8
20200331181645 88 166 5.0 0.0 0.00 0.00 0.00 55 1009.9
20200331180239 88 236 5.0 0.0 0.00 0.00 0.00 55 1010.4
20200331174628 88 196 5.0 0.0 0.00 0.00 0.00 56 1010.7
20200331173216 87 190 6.0 0.0 0.00 0.00 0.00 59 1010.9
20200331171628 88 203 6.0 0.0 0.00 0.00 0.00 56 1011.2
20200331170137 88 189 5.0 0.0 0.00 0.00 0.00 56 1011.4
20200331164601 87 282 6.0 0.0 0.00 0.00 0.00 58 1011.7
20200331163158 86 255 6.0 0.0 0.00 0.00 0.00 57 1011.8
20200331161552 87 215 5.0 0.0 0.00 0.00 0.00 56 1012.1
20200331160106 85 228 7.0 0.0 0.00 0.00 0.00 60 1012.3
20200331154648 84 194 7.0 0.0 0.00 0.00 0.00 61 1012.5
20200331153103 84 150 6.0 0.0 0.00 0.00 0.00 62 1012.7
20200331151544 83 213 6.0 0.0 0.00 0.00 0.00 64 1012.8
20200331150057 82 178 6.0 0.0 0.00 0.00 0.00 66 1012.9
20200331144619 81 232 6.0 0.0 0.00 0.00 0.00 68 1013.0
20200331143054 81 208 5.0 0.0 0.00 0.00 0.00 69 1013.2
20200331141610 80 254 5.0 0.0 0.00 0.00 0.00 71 1013.0
20200331140026 79 227 6.0 0.0 0.00 0.00 0.00 73 1013.0
20200331134520 79 211 5.0 0.0 0.00 0.00 0.00 76 1013.2
20200331133015 78 261 3.0 0.0 0.00 0.00 0.00 80 1013.5
20200331131531 77 225 4.0 0.0 0.00 0.00 0.00 82 1013.7
20200331130007 76 185 4.0 0.0 0.00 0.00 0.00 86 1013.7
20200331124506 75 192 2.0 0.0 0.00 0.00 0.00 88 1013.8
20200331123005 74 215 3.0 0.0 0.00 0.00 0.00 90 1013.9